Wind_Speed
20 19 21 23 24 26 26 26 26 26 27 27 28 29 29 30 29 29 28 27 26 26 25 25 24 23 23 22 22 22 21 21 20 20 19 18 18 18 19 19 19 18 18 18 17 17 17 16 16 17 17 17 17 17 15 15 14 12 11 9 6 4 6 7 5 6 5 3 2 2 2 3 3 4 4 4 4 3 5 6 6 7 7 6 6 6 6 6
21 20 21 23 24 26 27 27 27 27 27 28 28 29 30 30 30 29 29 29 28 27 26 25 24 23 23 22 22 22 21 21 20 20 19 19 19 19 19 19 19 18 18 17 17 17 17 17 16 16 16 17 17 17 16 15 15 13 11 11 7 4 8 8 5 5 4 2 2 3 3 3 4 5 4 4 4 4 4 5 5 4 5 5 5 6 6 6
22 21 21 23 24 25 27 27 28 28 28 28 28 29 30 31 31 31 31 30 29 29 27 25 23 22 23 22 22 21 21 21 21 19 19 19 19 19 19 19 19 18 17 17 17 16 16 17 17 17 16 17 17 16 16 15 14 14 13 13 8 5 9 9 7 5 4 3 2 3 3 3 4 4 5 5 4 5 5 5 4 3 4 4 4 5 5 5
24 22 22 24 25 25 26 28 28 28 28 29 29 29 30 32 32 32 32 31 30 29 26 24 23 23 23 22 22 21 21 21 20 19 19 20 20 20 19 19 19 18 18 17 16 16 15 15 17 18 17 17 17 15 15 14 14 15 14 14 10 7 9 8 8 8 7 5 3 4 2 3 4 4 5 4 4 5 4 4 4 4 3 3 4 4 4 4
26 23 22 24 25 25 26 27 28 29 29 29 29 30 31 32 33 33 32 31 30 28 26 24 23 23 23 23 22 21 21 19 19 20 20 20 20 20 20 19 19 19 18 17 16 17 16 15 17 18 18 17 17 16 16 15 15 15 15 15 12 9 9 8 9 10 9 6 5 4 2 2 4 4 4 3 3 4 3 3 4 4 3 3 3 4 4 4
27 25 23 24 26 26 26 27 28 28 29 29 29 30 31 32 33 32 32 30 29 27 25 24 24 24 23 23 22 22 20 17 17 20 20 20 20 20 20 19 19 19 18 18 17 17 16 16 17 17 16 16 16 16 15 15 15 15 16 16 14 11 10 9 9 10 9 6 5 4 3 3 3 3 3 4 4 3 3 2 3 4 4 4 4 3 3 4
29 26 24 25 26 26 27 27 28 28 29 29 29 29 31 32 32 32 31 30 28 27 25 25 24 24 24 24 22 21 21 16 16 20 20 19 20 19 19 19 19 19 18 18 18 17 16 16 16 15 15 14 15 16 15 14 15 15 15 15 14 12 11 10 9 10 9 7 6 5 5 4 3 3 3 4 5 3 3 3 2 3 3 5 5 4 4 4
30 28 26 25 26 27 27 27 27 28 29 28 28 29 30 31 31 31 31 29 28 26 26 25 25 24 24 24 22 22 22 17 15 19 20 19 19 19 19 19 19 19 18 18 18 18 18 17 16 16 16 15 15 15 15 15 15 15 15 14 13 13 12 11 10 9 9 8 7 7 7 5 4 5 4 6 6 3 3 5 4 4 4 4 5 5 5 6
31 30 28 27 26 27 27 28 27 28 29 29 28 29 30 30 31 31 30 29 28 26 26 26 25 25 25 24 23 22 22 18 14 18 19 18 19 18 18 18 18 19 18 19 19 18 18 18 18 19 17 17 15 14 14 14 15 15 14 12 11 11 12 11 10 9 9 9 8 8 7 5 6 7 6 8 7 3 4 6 5 5 5 5 6 7 7 7
32 31 30 28 27 26 27 28 28 28 29 29 29 29 29 30 30 30 30 29 27 26 26 25 24 25 25 24 24 22 21 19 14 16 19 18 17 17 17 18 18 18 18 18 19 18 18 19 19 19 17 16 15 14 14 14 14 13 12 11 10 10 11 11 10 10 9 10 9 9 7 6 7 6 5 7 7 4 5 6 6 6 5 6 6 7 8 8
33 33 31 30 28 27 27 28 29 29 29 29 29 29 29 29 29 29 29 28 26 26 26 25 24 25 25 25 24 21 20 20 14 14 18 18 17 17 17 17 17 17 17 16 17 17 17 17 18 18 17 16 15 13 13 14 13 11 10 11 11 11 11 10 10 11 10 10 8 9 9 7 6 6 5 7 8 5 5 6 6 6 6 5 5 7 8 8
32 34 33 31 30 28 27 27 28 30 30 29 29 28 28 28 29 28 28 27 26 26 26 25 25 25 25 25 24 20 19 21 17 14 16 18 17 17 17 17 16 16 16 15 15 16 16 16 15 16 16 15 14 12 12 14 13 11 11 11 12 12 11 11 11 11 10 9 9 9 10 7 6 6 6 7 6 5 4 4 5 6 6 6 6 6 7 8
32 34 34 33 32 30 29 28 28 29 29 30 29 28 28 27 27 27 27 26 26 26 26 26 25 25 26 24 23 21 19 21 20 15 15 18 16 16 16 16 16 15 15 15 15 16 16 15 15 16 16 14 14 12 12 14 13 13 12 11 11 12 12 11 11 11 10 10 10 9 8 6 7 7 6 6 6 5 5 4 5 6 6 7 7 7 8 8
32 34 35 35 34 32 31 29 28 28 28 29 29 27 27 26 26 27 27 26 26 26 26 26 26 26 26 24 24 23 21 20 21 17 15 17 17 16 16 15 15 15 15 15 15 16 16 16 16 16 15 12 13 13 11 13 14 14 13 11 11 12 11 11 11 11 10 10 10 10 9 7 8 8 6 6 6 6 6 5 5 6 7 8 8 8 9 9
33 34 35 36 36 34 32 31 29 29 28 29 28 27 26 25 26 26 26 26 26 26 27 27 26 26 26 25 25 25 23 21 21 19 16 17 16 15 16 15 15 15 15 15 15 16 16 17 16 16 16 14 13 14 11 12 15 15 12 11 12 11 10 10 11 11 10 10 11 10 9 9 11 10 8 7 7 7 7 6 7 8 8 9 9 9 9 10
34 34 36 36 36 35 34 32 30 29 29 28 27 26 26 25 26 26 26 27 26 26 27 27 27 27 26 25 26 26 25 21 20 21 18 17 17 16 16 16 15 15 15 15 15 16 16 17 16 15 16 15 14 15 13 12 15 16 12 9 10 10 9 10 10 11 10 9 11 11 10 10 11 11 9 8 7 8 9 9 10 10 10 10 10 10 10 11
36 34 35 36 37 36 35 34 31 30 29 28 27 26 26 26 25 26 26 27 26 27 28 28 27 27 25 26 28 27 26 23 21 21 19 18 18 17 17 16 16 15 15 15 15 16 16 16 16 16 16 14 14 15 14 14 15 16 13 10 8 7 8 9 9 9 10 10 11 12 13 11 10 12 12 11 11 13 12 11 12 12 13 12 12 11 11 12
37 36 35 36 37 37 36 35 32 31 29 28 28 27 27 26 26 26 27 28 28 28 28 29 30 28 26 28 29 27 26 24 21 21 20 20 19 18 17 16 17 16 16 16 16 16 17 17 16 16 16 16 16 17 15 13 14 14 13 11 9 7 7 8 8 9 9 10 10 13 15 13 11 13 14 14 15 16 15 13 13 13 14 14 14 14 13 13
38 37 35 35 36 37 37 36 34 32 31 30 29 28 27 27 26 27 28 29 29 30 30 31 34 31 26 27 28 26 26 25 23 22 21 21 20 19 18 18 17 18 18 17 17 17 17 17 17 17 18 18 17 17 14 9 8 10 11 11 9 8 9 9 10 10 10 11 13 15 17 16 14 14 15 15 17 19 18 17 15 15 15 15 16 16 16 16
39 38 36 35 35 36 36 36 35 34 33 32 31 30 30 30 29 30 31 31 31 32 32 32 34 32 24 21 26 26 26 27 25 23 22 22 21 21 20 19 19 19 19 18 17 17 17 16 17 16 16 16 15 16 14 9 7 9 10 11 10 9 9 9 10 11 11 13 14 16 19 20 18 17 16 16 18 20 20 19 17 16 16 16 16 16 17 17
40 38 36 35 35 35 36 36 36 35 35 34 32 32 32 32 32 33 33 33 32 32 33 31 30 32 26 17 20 26 25 27 27 24 23 23 23 22 21 21 21 20 20 19 18 17 17 16 16 15 14 15 15 16 15 13 10 9 11 12 11 11 10 9 10 10 11 14 16 18 22 23 21 20 19 18 19 20 20 20 19 18 17 17 17 17 16 14
38 38 38 35 35 34 35 36 36 37 36 35 34 33 32 31 31 30 29 30 31 31 31 31 29 32 30 19 16 23 26 26 26 26 25 25 25 24 23 22 22 21 21 21 20 19 19 17 16 15 14 14 14 16 16 16 14 11 11 12 12 11 11 10 11 12 12 15 18 19 23 26 24 23 22 21 21 20 20 21 20 19 19 17 16 15 13 13
37 37 38 36 35 34 35 36 37 38 38 36 35 34 32 31 30 28 26 26 28 30 31 31 29 29 31 24 17 20 25 25 25 27 27 26 26 24 24 24 22 22 21 21 21 20 19 18 18 16 15 13 12 14 15 16 15 13 13 12 12 12 11 10 11 12 13 15 17 21 26 29 27 25 25 23 23 23 21 21 19 17 17 15 14 14 14 15
35 35 37 37 35 35 35 36 38 39 38 37 35 33 32 30 28 28 25 22 25 28 30 31 29 28 30 29 21 17 21 24 25 25 26 26 25 25 25 24 23 23 23 21 20 20 17 16 18 17 16 16 14 14 15 15 14 14 14 13 12 13 12 10 12 13 15 17 19 23 27 29 28 26 24 22 21 20 18 17 14 13 15 16 16 17 16 16
34 32 35 37 36 35 35 37 39 39 38 36 34 33 31 29 27 26 23 19 21 26 28 31 31 29 29 30 27 20 19 24 26 25 26 25 25 26 25 24 24 25 24 22 20 20 19 17 17 17 17 18 17 17 17 16 15 14 13 13 12 13 12 12 13 14 16 17 17 18 16 17 22 21 19 20 21 20 19 18 16 14 17 18 17 16 16 16
33 30 33 36 37 37 37 38 38 37 37 36 34 33 31 29 26 24 22 16 19 26 29 32 33 30 30 31 31 26 21 23 27 27 26 27 27 26 25 25 26 24 23 22 20 20 21 20 17 17 17 18 19 19 18 17 16 14 13 13 13 13 12 12 13 13 12 13 15 16 10 14 27 29 24 24 26 25 23 21 19 16 16 18 17 17 16 14
35 30 29 34 37 38 38 38 37 37 37 34 34 34 32 29 25 24 20 9 14 27 31 33 34 33 33 32 32 31 26 25 27 28 28 28 28 26 25 26 25 23 22 21 21 21 21 21 19 18 18 18 18 18 17 17 15 14 13 13 12 12 11 11 12 12 12 16 18 19 16 18 29 34 29 27 29 28 25 23 20 16 16 17 16 15 12 10
37 31 27 31 37 38 38 37 37 37 36 34 35 33 32 30 25 24 18 4 7 23 29 34 35 33 33 32 33 34 31 28 27 28 30 28 28 27 26 26 24 22 22 24 24 22 21 21 21 21 20 19 18 16 15 15 14 15 14 13 13 12 12 12 12 12 13 16 15 16 15 13 21 31 31 29 29 28 25 21 16 13 12 13 12 11 9 10
38 34 28 28 34 38 39 38 38 36 35 35 35 33 32 29 25 23 13 4 8 17 24 32 35 33 33 33 34 36 35 32 27 27 30 29 28 28 26 26 24 22 23 25 24 22 20 20 21 22 22 21 19 17 16 15 14 15 14 13 12 11 11 10 11 12 13 14 14 15 14 11 16 24 23 20 22 21 17 12 10 9 8 10 13 13 10 15
39 38 31 27 31 38 40 38 38 36 36 36 35 35 32 28 30 22 7 10 16 16 20 28 35 36 36 37 37 37 37 35 31 27 27 29 28 28 27 27 26 25 24 24 23 22 20 19 20 21 22 22 20 18 18 17 16 15 13 12 10 11 12 12 14 14 11 9 8 9 10 10 10 9 6 8 10 9 7 7 8 8 8 11 15 12 14 18
39 41 35 29 29 35 40 38 37 37 36 37 36 36 32 30 32 20 6 17 21 16 21 27 33 38 38 40 41 40 39 37 34 31 29 31 31 30 30 28 27 26 24 24 23 22 20 18 19 20 21 21 21 20 18 17 19 17 14 12 10 9 10 11 11 8 6 5 3 3 6 11 14 6 3 6 3 6 10 13 13 11 9 14 16 14 17 13
38 41 38 32 28 31 38 37 36 36 35 39 37 36 36 29 26 20 17 22 17 16 27 28 31 40 40 41 42 41 41 38 36 35 32 31 32 34 34 33 32 28 25 27 26 23 22 21 21 20 21 20 19 18 18 18 19 18 16 14 10 3 2 5 4 2 6 7 4 4 6 14 27 26 14 10 13 19 20 17 12 9 11 16 16 14 10 5
37 40 41 37 30 29 36 37 36 37 37 40 37 38 39 25 19 30 34 27 13 14 29 30 28 37 40 41 42 41 41 39 38 36 33 31 31 34 34 34 35 31 28 30 31 26 21 21 24 22 20 20 20 19 18 18 18 19 19 17 12 5 2 3 3 1 6 7 6 8 9 15 26 28 22 19 18 19 19 15 9 9 14 17 16 11 5 5
36 39 41 42 34 28 32 36 37 38 39 40 38 40 37 21 22 40 42 32 18 12 24 31 29 33 38 41 43 42 40 37 37 37 34 31 31 34 37 36 36 35 30 27 30 31 22 17 24 26 22 20 21 19 16 14 14 15 17 17 17 12 6 3 4 3 3 3 6 10 8 10 13 13 14 14 10 7 8 8 5 6 12 16 16 9 5 7
33 38 40 43 40 31 30 35 38 39 40 41 41 41 37 28 34 46 45 39 29 18 20 28 30 33 37 39 40 42 41 37 36 36 36 36 37 38 39 40 39 37 33 27 25 30 26 19 20 25 26 22 19 19 19 16 14 13 15 18 19 17 12 5 4 5 3 3 5 11 14 19 21 21 23 23 22 16 11 11 10 10 12 16 19 13 9 10
31 37 40 43 43 35 30 33 37 40 42 43 44 44 43 42 44 48 47 45 40 30 23 26 31 34 37 38 38 40 41 38 36 36 37 39 40 39 38 39 40 40 38 33 25 23 24 20 16 18 23 24 21 20 22 22 18 15 19 23 21 18 16 10 5 6 4 5 8 12 21 31 32 31 31 27 26 23 19 17 15 14 14 17 20 17 14 12
32 37 40 43 45 41 33 32 37 41 43 46 48 47 48 50 50 46 43 42 43 36 26 26 31 34 37 39 38 40 41 38 35 37 39 38 36 40 42 38 38 40 39 36 28 22 20 18 17 18 20 23 24 22 23 25 23 20 21 23 21 16 16 14 6 2 1 3 8 13 24 32 27 21 16 8 6 5 8 11 11 13 15 16 19 16 11 9
32 35 39 42 44 45 39 33 37 42 45 49 51 49 49 51 50 42 37 37 40 39 32 28 30 32 36 40 39 40 41 39 37 38 40 38 34 39 44 42 38 38 39 37 31 24 20 17 16 19 20 20 22 24 24 25 27 25 21 19 18 13 12 15 9 2 2 2 6 11 18 28 32 29 23 17 15 13 15 18 18 15 13 13 13 11 8 11
30 30 37 40 41 46 44 37 37 42 47 52 54 52 51 52 50 43 35 33 36 40 38 32 30 31 34 37 39 39 40 41 41 40 38 37 36 36 40 43 41 38 37 39 35 26 21 17 14 19 23 21 22 27 29 29 27 26 23 21 21 16 13 17 16 8 4 3 4 6 6 21 38 38 32 28 25 24 21 17 12 9 10 11 11 11 12 16
32 30 35 38 39 43 45 41 39 44 49 53 55 55 53 49 50 45 33 27 30 37 39 36 34 33 33 35 36 38 39 40 41 41 37 37 38 34 34 38 42 40 36 36 37 31 24 21 18 19 23 24 26 28 29 28 25 26 27 26 26 23 16 14 16 16 10 4 3 1 5 27 42 33 29 27 23 22 17 7 5 7 10 13 13 13 17 21
34 34 34 36 38 41 45 44 43 46 51 54 55 55 50 45 46 47 36 27 27 31 34 35 35 34 34 34 35 37 39 38 40 41 40 40 40 37 35 36 38 39 36 35 37 37 31 26 21 20 24 27 28 27 25 25 24 25 28 27 29 29 23 13 9 17 20 11 7 3 6 35 48 35 30 25 15 12 5 5 7 5 8 12 14 15 19 22
26 29 30 34 38 41 44 48 49 50 52 55 56 55 51 43 42 46 43 32 27 27 27 30 34 35 35 35 36 37 37 38 39 42 42 43 44 41 38 35 33 34 36 37 38 37 34 30 25 24 26 27 25 25 25 25 26 27 28 29 29 30 31 23 10 11 18 17 20 12 9 36 49 32 21 13 9 10 7 5 7 11 15 16 16 20 24 22
24 23 26 30 36 42 45 48 51 52 54 56 55 54 52 45 39 42 46 37 28 27 27 28 30 33 35 36 37 38 38 37 37 39 40 42 43 42 38 34 32 31 33 36 38 38 35 31 28 22 21 22 23 26 26 25 26 29 31 33 31 30 31 28 20 17 15 18 23 12 8 37 47 31 24 21 18 19 17 16 17 15 18 20 23 29 29 21
27 24 22 23 29 41 47 49 52 56 58 58 55 54 53 49 41 39 45 42 32 27 28 29 29 30 33 34 35 38 37 35 34 35 37 38 39 39 39 36 32 31 33 33 36 38 34 32 29 17 7 10 14 18 24 28 29 30 32 32 31 31 29 26 27 24 18 25 29 14 14 41 45 32 30 27 23 22 19 19 22 23 26 29 32 32 24 18
29 27 22 18 28 44 49 49 53 56 58 57 55 54 53 51 47 42 41 43 38 31 28 30 29 28 30 33 34 35 35 34 33 32 34 36 36 35 37 37 34 33 33 30 32 35 34 36 36 24 13 10 12 17 28 35 34 32 33 32 30 30 29 28 28 25 24 33 34 26 31 49 48 39 38 35 32 33 31 32 35 37 37 36 35 29 20 21
28 28 26 21 28 43 47 48 52 54 57 57 55 55 54 52 51 48 42 38 38 36 31 29 30 28 29 33 35 34 34 34 33 31 30 32 34 34 34 35 34 33 31 28 29 32 33 36 39 37 34 31 30 33 34 32 31 32 33 33 31 30 30 30 30 31 35 35 32 36 45 50 51 49 45 42 41 40 40 40 40 38 37 35 31 25 23 28
27 29 31 27 24 31 38 43 50 54 56 57 56 56 56 55 53 50 46 39 35 36 35 32 31 31 31 33 36 35 34 34 35 34 29 27 29 31 30 31 32 32 30 27 28 30 32 34 36 39 40 36 34 33 29 24 25 27 27 26 26 26 28 33 34 36 38 32 29 42 46 44 52 53 44 42 41 38 38 38 37 36 36 33 30 29 32 36
31 29 31 30 25 24 28 33 41 50 56 57 56 55 55 57 55 51 51 46 39 36 37 36 36 35 33 32 34 34 33 34 35 35 32 29 28 30 30 29 30 32 32 29 29 30 32 32 33 34 34 31 27 26 25 24 24 25 25 25 25 24 27 34 38 40 40 36 36 45 44 44 54 53 45 43 42 40 40 40 40 40 39 38 37 38 39 38
35 32 29 31 30 26 24 24 28 39 49 55 56 54 54 56 57 56 54 52 47 42 38 39 41 41 38 34 31 32 32 33 35 35 35 33 30 30 30 29 29 32 33 32 30 31 31 31 30 30 30 29 27 26 27 27 27 28 29 28 29 31 33 38 42 43 42 42 44 47 46 49 54 51 46 44 42 41 42 42 42 41 41 42 41 40 40 39
37 36 31 29 32 32 28 24 23 28 38 47 53 56 55 55 57 58 57 55 54 50 45 42 40 42 43 40 36 35 35 35 35 35 35 35 33 32 31 30 30 31 32 32 31 32 32 31 29 29 28 28 31 32 31 30 31 31 31 31 34 38 39 43 44 43 41 43 45 45 47 52 54 50 46 44 42 43 42 43 43 42 42 43 43 42 42 43
38 38 35 30 29 32 32 30 27 26 29 37 45 53 57 57 57 58 58 58 56 53 51 48 41 37 39 41 40 38 37 35 35 35 36 36 37 36 34 33 32 31 32 32 32 33 34 32 31 30 27 29 35 35 34 35 32 31 34 38 41 42 43 45 45 43 42 44 44 44 49 54 54 49 46 46 46 45 45 45 45 45 45 44 45 46 46 45
41 39 39 36 31 29 30 32 32 30 28 29 33 40 48 55 57 53 51 54 56 55 53 50 45 39 37 38 40 40 39 37 36 35 36 36 37 37 36 35 35 35 34 33 33 35 35 35 36 33 27 31 38 38 36 31 20 23 39 47 46 47 48 47 46 45 46 47 45 47 52 54 52 49 50 51 50 48 48 48 47 48 47 46 47 47 45 44
Wind_Direction
209 207 202 198 199 199 197 193 192 194 195 191 188 184 182 186 191 195 196 195 193 189 186 185 185 188 191 193 193 193 193 192 192 193 192 189 185 185 183 183 184 183 183 181 177 175 175 174 178 183 183 183 185 188 189 190 190 189 190 183 166 166 192 198 203 221 222 186 200 227 204 198 201 204 198 195 204 195 177 188 197 193 197 197 191 199 209 217
207 206 202 199 199 200 198 194 192 195 196 193 190 185 183 186 190 192 193 192 190 187 186 186 187 190 192 192 191 191 191 191 193 192 189 187 186 185 182 183 183 181 182 180 177 176 175 174 175 179 181 184 186 185 186 189 190 189 190 186 182 192 200 210 221 228 239 224 217 214 199 203 201 195 194 188 190 191 183 191 200 198 202 201 199 207 213 222
205 205 201 198 198 199 199 196 193 196 198 194 190 186 185 186 189 191 191 189 187 186 186 188 190 191 192 191 190 191 192 194 194 189 187 187 186 185 182 183 182 180 181 180 177 176 178 178 175 175 180 184 185 186 186 188 190 188 191 190 186 185 191 208 235 249 264 247 226 217 194 183 195 194 193 193 189 191 187 183 186 195 209 214 209 212 215 221
204 203 201 198 197 198 199 197 194 196 198 195 191 187 186 187 188 190 189 187 186 186 187 189 191 191 191 191 190 192 194 196 194 188 187 187 186 185 183 182 181 179 181 181 178 176 180 185 183 178 181 186 185 187 187 188 192 190 192 194 188 183 185 201 230 250 263 254 234 234 211 152 178 195 200 201 191 196 194 178 177 188 202 212 212 215 219 218
204 203 200 198 198 197 198 197 195 195 197 194 190 187 186 187 188 188 188 186 186 187 189 190 191 190 191 191 192 193 195 197 194 189 188 186 185 185 183 182 181 180 181 180 179 180 179 188 194 185 184 191 188 188 189 190 194 194 195 195 192 190 196 215 237 251 256 246 230 235 242 182 191 200 212 218 206 210 215 186 182 188 189 203 208 206 220 227
203 202 201 199 198 197 198 197 194 194 196 194 190 188 187 187 188 187 187 186 186 188 190 190 190 190 191 191 192 194 193 193 192 190 189 187 186 185 183 183 183 183 182 180 182 184 181 186 196 191 188 193 193 192 191 192 197 199 200 199 199 196 201 220 237 246 249 243 235 235 231 222 216 209 218 233 232 225 231 213 184 181 184 208 223 211 220 238
203 202 201 200 198 198 198 198 196 195 196 194 191 189 188 187 187 187 187 188 188 190 191 190 190 190 192 191 192 194 191 189 190 191 190 187 186 186 185 184 185 184 182 182 183 184 186 188 191 191 192 195 197 194 190 196 200 202 206 205 206 207 211 220 227 236 240 238 232 226 225 226 227 222 214 232 243 244 249 253 227 208 202 212 234 239 236 244
203 203 203 201 198 198 199 199 198 196 197 196 193 191 190 188 187 187 188 189 190 191 191 190 190 191 191 191 193 194 190 187 190 192 191 189 188 187 187 187 187 186 184 184 185 186 188 187 187 189 193 197 198 196 192 197 204 206 209 209 211 213 217 222 224 229 234 233 230 231 233 226 224 226 211 222 240 246 245 255 248 239 241 234 243 252 254 255
204 204 204 203 199 198 199 200 199 198 198 197 195 193 192 190 188 188 189 190 192 192 191 190 190 191 191 191 194 194 189 187 188 192 192 191 190 189 190 190 189 188 187 186 187 189 189 188 190 191 195 198 199 199 196 200 210 211 209 211 214 216 218 221 224 227 231 234 234 236 239 230 234 237 223 232 251 245 228 250 257 247 245 246 250 258 263 264
204 205 206 205 202 198 199 201 200 199 199 199 197 195 193 192 190 189 190 191 192 192 192 191 191 191 190 192 195 193 189 188 186 190 193 193 192 193 193 193 192 191 190 190 190 191 194 194 194 194 198 202 201 202 201 205 214 215 213 214 215 217 217 219 222 225 229 234 237 243 246 238 242 249 238 241 251 239 222 242 259 264 257 251 252 259 265 270
205 206 206 207 205 201 199 200 202 201 200 200 199 197 195 194 192 191 191 193 193 193 193 191 192 191 192 196 195 191 190 191 188 189 193 195 195 195 195 195 194 193 192 193 194 193 196 201 201 197 198 202 203 205 207 209 214 217 217 217 217 217 216 217 221 224 229 234 237 245 248 243 243 249 244 246 252 248 232 237 254 268 273 271 266 266 271 275
207 207 207 207 207 204 200 200 202 203 202 201 202 199 197 195 194 193 193 194 194 195 194 192 193 192 194 197 193 189 193 193 192 190 192 195 197 197 197 196 195 194 193 193 197 197 196 200 204 201 199 201 203 204 208 210 210 213 216 218 218 217 217 217 220 225 226 230 233 240 252 250 230 224 232 244 250 248 236 230 244 260 275 286 288 287 287 284
209 208 208 208 208 207 202 199 200 202 203 203 202 200 199 197 196 196 195 195 196 196 195 193 194 193 196 197 192 191 194 194 195 193 191 194 197 198 198 196 195 194 193 193 197 199 197 196 199 202 202 202 203 202 206 208 207 213 217 219 220 218 219 216 218 224 220 225 230 235 247 240 219 217 223 233 237 241 245 242 248 264 278 289 297 300 300 296
211 209 209 209 209 209 205 201 200 201 202 203 202 200 201 200 199 198 197 197 197 197 196 195 195 195 197 196 193 194 194 194 196 194 192 194 195 197 197 196 195 194 194 193 195 200 199 196 197 199 199 200 204 202 202 202 204 213 215 216 219 217 217 215 216 219 215 222 230 234 234 222 226 234 224 226 242 254 261 266 273 283 287 294 301 303 305 304
212 211 210 209 209 211 208 203 200 200 202 203 203 203 203 203 203 201 199 199 199 198 197 197 196 197 199 198 196 195 195 194 194 193 193 193 195 195 195 195 193 193 194 193 194 199 199 198 198 197 197 198 197 197 197 196 201 210 211 214 218 216 216 212 214 218 215 221 229 236 233 223 236 249 245 245 251 257 268 283 289 292 292 295 301 304 305 303
213 212 210 210 210 211 211 206 201 200 202 205 206 206 206 205 206 204 203 202 200 199 199 198 198 199 200 201 199 197 196 194 193 194 192 191 194 195 195 194 192 191 192 193 193 196 198 199 197 196 199 199 196 196 195 189 197 205 204 207 213 215 218 211 214 222 219 224 232 237 238 233 242 255 264 268 265 266 274 284 291 292 293 294 298 300 301 301
211 214 210 210 210 210 212 209 204 201 202 204 207 208 207 207 207 207 205 203 201 201 200 199 199 201 202 202 201 199 197 195 195 195 192 191 192 194 196 194 191 190 191 192 192 192 194 194 194 195 196 197 196 195 191 189 194 198 194 190 192 206 225 222 223 231 230 233 238 244 248 246 254 266 271 274 273 272 275 281 285 288 293 297 296 295 296 297
209 214 211 210 210 210 211 211 207 203 203 204 206 208 207 207 208 208 207 205 202 201 201 201 199 199 204 204 201 199 198 197 197 197 194 193 194 194 196 196 192 190 190 191 190 190 190 189 191 191 189 191 195 195 194 196 196 193 189 185 182 193 220 227 229 240 244 246 250 256 258 254 253 262 269 276 278 278 279 279 280 285 293 297 296 296 297 295
210 214 211 210 211 210 210 211 209 205 203 204 206 208 208 208 208 209 209 207 204 201 201 203 201 199 202 205 202 198 198 198 199 199 196 195 196 195 195 197 196 193 191 191 189 189 190 189 188 188 191 193 196 196 188 182 188 187 186 192 189 193 215 227 237 249 257 262 264 265 268 266 256 253 260 269 276 279 280 280 281 285 286 287 290 292 296 297
211 213 210 210 210 211 210 210 210 208 205 205 207 208 208 207 206 207 208 207 207 205 203 204 204 202 203 205 203 200 199 200 201 200 199 197 197 198 197 197 198 197 196 193 192 191 191 193 192 192 195 194 195 195 179 160 178 183 179 191 198 201 212 220 233 246 255 264 269 272 273 271 266 262 261 262 267 271 275 280 282 283 283 282 282 284 289 292
212 212 209 209 210 211 210 209 210 209 207 206 207 209 211 209 207 207 206 206 207 207 207 207 206 204 203 204 204 203 202 203 202 200 200 200 199 200 200 199 200 200 199 197 194 194 195 196 195 194 194 188 191 196 186 177 189 186 175 185 196 202 211 222 236 247 258 265 270 276 276 273 272 272 270 269 269 270 276 282 283 284 285 283 283 284 281 277
212 212 209 209 210 210 211 209 209 210 208 207 208 211 214 213 212 211 210 210 210 209 210 210 208 205 202 200 201 203 205 205 203 201 202 202 202 202 202 203 203 203 204 202 199 198 199 198 196 196 193 187 191 198 197 196 203 203 197 199 204 215 226 234 248 259 265 270 274 279 279 275 273 275 276 276 274 273 277 281 284 286 286 285 285 280 270 270
210 212 209 208 209 210 210 209 209 210 210 208 208 211 214 215 214 213 212 213 214 213 213 213 212 208 203 201 200 202 205 207 205 204 203 204 204 205 205 205 205 207 208 207 206 205 203 200 200 198 192 192 199 204 205 208 214 220 225 225 227 235 238 235 248 261 266 274 280 283 284 278 274 276 276 275 275 275 276 278 281 283 284 286 284 279 278 281
209 211 209 208 208 209 210 209 209 210 210 209 208 210 214 215 214 214 211 211 215 216 216 215 214 210 205 203 203 203 205 206 207 208 207 207 206 207 209 207 207 211 211 210 211 213 211 205 205 203 196 196 201 206 210 214 219 225 230 232 236 239 238 242 253 263 273 280 284 289 292 285 279 280 279 276 276 276 275 276 277 278 280 281 283 284 283 281
207 211 209 207 207 208 210 211 209 208 209 208 207 209 212 212 211 212 210 210 217 218 216 217 216 212 206 205 205 205 205 205 205 207 209 209 208 209 209 208 209 213 213 212 214 217 217 212 209 209 209 208 207 210 213 217 224 232 233 232 236 239 244 255 261 271 281 284 287 295 301 288 280 279 279 281 280 279 279 278 277 277 278 280 282 283 279 278
207 209 208 207 206 207 210 211 209 207 208 207 207 208 208 206 205 208 205 208 222 219 213 214 215 211 207 205 205 205 206 207 205 205 207 208 209 209 207 208 211 212 213 213 217 222 221 218 215 213 216 219 218 218 221 224 229 234 235 235 237 245 253 260 266 275 282 282 285 292 292 282 282 279 275 281 282 281 281 281 282 279 276 278 279 280 279 278
209 208 206 205 206 207 210 211 208 206 205 204 204 206 205 200 197 201 199 207 237 223 213 212 211 209 207 206 207 207 208 207 203 203 206 206 209 209 208 210 210 209 210 211 214 220 220 218 218 217 218 223 223 223 226 228 231 233 236 239 239 248 255 260 272 277 278 283 284 284 282 278 281 281 282 284 283 283 284 285 286 282 274 276 276 271 266 272
211 208 205 205 206 207 209 211 209 206 203 201 201 202 200 195 191 194 191 175 234 216 212 212 210 209 206 205 209 210 212 211 203 203 206 206 208 209 210 213 213 210 210 212 214 219 221 217 218 220 221 225 226 225 226 226 230 234 235 237 238 247 255 263 276 278 283 288 281 278 282 275 274 282 288 289 285 288 290 289 289 284 276 271 259 236 235 282
210 206 207 207 206 206 207 209 209 205 200 198 198 197 194 191 187 186 186 194 205 205 208 208 207 208 204 203 208 211 214 215 209 206 206 205 207 208 209 212 212 209 210 215 219 221 223 219 219 222 225 229 230 228 230 229 232 235 234 236 238 246 256 267 274 277 285 283 271 272 276 273 279 287 291 288 290 293 294 299 293 283 280 260 231 209 243 291
207 204 209 210 207 207 205 207 209 204 198 196 194 192 190 188 184 176 173 209 203 203 204 202 204 205 202 202 206 210 214 215 212 208 205 205 205 206 208 210 210 207 207 211 216 220 222 220 219 223 227 231 234 233 234 234 234 234 232 230 237 250 261 269 269 273 285 279 268 270 266 261 279 307 305 273 289 300 300 313 298 286 283 246 216 216 270 287
205 204 209 213 211 208 205 205 207 204 198 194 192 189 186 185 184 177 181 204 201 203 201 198 201 204 205 205 204 207 210 212 213 210 206 204 203 203 204 204 203 202 204 207 210 216 218 218 220 224 227 230 231 231 231 231 230 229 229 230 237 254 265 268 267 263 263 263 257 249 248 240 242 251 122 152 216 284 289 295 292 291 269 224 215 247 274 272
205 204 208 214 214 209 205 205 205 204 199 194 191 187 183 181 186 193 203 202 199 206 204 199 200 204 206 207 208 208 207 207 210 212 211 206 203 205 205 204 201 196 200 206 209 212 215 218 220 222 225 225 224 222 217 220 225 227 230 227 220 231 283 266 265 230 232 246 244 223 219 234 248 257 249 233 263 279 283 284 280 272 239 220 230 255 263 259
207 206 207 212 214 208 204 202 202 201 199 195 191 186 182 178 192 201 202 202 197 202 208 208 206 205 204 205 208 210 208 207 208 209 212 211 209 209 208 211 210 207 207 206 205 207 209 216 217 216 219 220 219 215 211 215 221 225 227 220 205 173 96 251 260 288 257 250 226 221 230 247 261 270 270 270 276 274 271 269 262 244 227 227 238 247 270 298
208 208 209 210 212 210 202 200 199 199 198 196 189 184 182 184 202 203 203 204 198 196 208 209 205 203 204 206 209 210 207 207 209 209 208 208 211 211 210 210 211 214 215 208 205 207 205 213 218 216 218 219 219 217 217 224 226 226 228 225 220 210 188 205 216 210 254 264 217 213 226 247 259 273 281 285 286 265 249 246 241 227 225 230 231 237 296 298
211 209 210 209 209 209 202 198 198 196 195 195 189 184 185 193 202 206 208 204 201 204 204 204 204 200 201 205 209 211 209 205 206 209 209 209 211 212 212 211 209 211 213 209 206 208 210 217 220 218 220 221 219 217 218 222 224 223 221 221 225 224 221 218 208 223 264 336 247 224 239 255 261 267 273 279 281 274 258 254 253 244 242 237 230 242 288 287
215 209 210 210 208 209 203 197 196 194 193 192 188 187 194 202 205 209 211 207 205 208 194 190 199 197 193 198 205 209 210 210 207 206 209 214 216 216 216 215 213 211 212 210 204 203 208 215 217 215 217 219 219 220 221 222 223 219 213 215 219 222 225 225 233 255 268 289 265 245 254 264 270 277 280 278 276 270 258 257 259 250 246 234 232 252 277 276
217 210 210 210 207 206 203 198 195 193 191 190 191 196 205 210 211 211 213 209 207 210 198 184 193 195 191 194 202 206 207 208 208 206 208 210 216 219 217 218 218 216 216 215 210 207 207 209 211 210 212 216 217 220 223 224 224 218 212 215 218 219 223 223 232 291 218 263 268 250 258 269 273 278 283 264 226 226 235 257 274 267 252 236 236 249 260 272
216 212 210 210 207 205 202 199 197 193 190 189 195 206 213 215 215 212 215 213 209 212 210 197 196 198 195 196 200 203 204 204 203 205 207 208 215 222 218 216 218 218 219 218 214 213 212 209 205 204 207 210 212 215 218 220 221 221 219 217 215 212 210 208 208 232 188 223 281 259 259 268 265 260 262 255 249 267 281 283 285 276 251 232 230 230 248 294
208 213 213 208 205 205 200 195 197 194 189 191 197 207 215 218 217 213 215 218 215 216 215 208 204 202 202 205 204 201 203 205 204 203 205 208 215 223 221 218 218 216 217 218 215 211 211 214 208 202 204 203 206 210 212 213 215 218 222 222 223 222 210 206 206 208 195 170 263 280 272 266 266 266 269 271 273 283 291 288 278 253 216 194 194 219 264 299
191 206 216 210 202 205 201 193 194 194 193 198 203 209 213 216 215 210 210 216 218 220 219 213 211 207 206 209 208 206 206 207 207 206 207 211 215 220 222 220 219 217 214 215 218 216 213 216 215 205 200 202 209 213 216 220 220 221 223 221 222 221 209 210 214 217 219 188 210 271 283 268 269 273 275 278 285 290 292 275 206 179 182 187 199 236 278 301
184 192 208 212 205 204 201 194 192 194 199 205 208 210 210 211 211 207 205 211 217 223 225 220 217 215 213 210 210 210 208 208 211 211 213 216 217 220 222 220 219 216 210 208 215 218 217 217 215 207 203 208 215 220 226 232 234 237 238 234 234 229 216 209 212 219 223 224 227 200 285 274 272 275 278 280 281 275 262 148 153 173 217 229 230 254 289 302
194 186 191 202 207 206 202 200 196 195 202 207 209 210 208 208 210 206 204 208 213 220 224 223 221 220 219 219 217 215 212 210 212 214 217 221 223 225 225 223 220 217 213 213 217 219 219 220 218 215 218 221 223 225 227 230 234 238 242 243 243 236 224 215 208 218 219 227 240 235 261 271 270 273 273 258 209 211 211 218 266 276 266 255 247 269 295 298
209 193 181 186 201 207 204 203 199 198 204 209 209 210 210 208 208 206 205 206 208 213 214 215 218 217 218 221 221 219 217 215 216 221 224 227 229 229 228 226 223 219 217 218 220 219 217 219 216 212 220 223 222 227 228 228 230 230 231 234 234 232 232 230 234 238 229 228 233 219 244 262 264 265 260 251 246 254 266 271 274 272 263 260 266 283 299 294
219 209 192 183 196 205 205 205 204 204 207 209 208 210 211 211 210 207 207 208 208 211 212 211 213 213 215 219 221 221 219 215 218 224 227 229 231 229 227 227 224 220 219 219 220 217 213 213 209 194 190 216 218 226 226 224 225 226 231 233 233 235 235 234 236 237 241 243 234 209 235 253 257 262 264 267 271 274 279 276 273 276 278 280 287 296 301 280
227 223 212 197 195 198 201 207 211 213 213 209 208 210 212 213 213 209 210 213 213 212 211 210 210 211 213 215 218 222 223 220 220 223 225 228 232 230 225 224 223 224 227 227 226 223 216 214 212 200 186 197 207 217 222 222 221 225 233 235 235 236 231 231 232 225 232 245 235 221 241 255 260 265 267 271 277 279 283 282 282 287 290 291 295 300 292 274
226 228 222 210 197 196 199 203 208 214 216 212 209 211 212 214 215 212 211 214 217 216 211 209 209 209 210 210 211 215 218 219 220 222 221 221 227 229 226 223 223 225 228 226 224 223 219 219 221 220 220 223 229 232 232 229 224 227 235 238 238 239 237 235 229 223 232 241 238 238 248 261 269 270 270 275 280 284 286 286 287 291 292 292 294 293 286 285
219 226 227 220 207 203 206 206 205 209 214 213 213 213 213 213 215 215 213 212 215 216 213 209 207 206 206 207 208 210 213 214 216 219 221 221 223 226 226 223 222 221 221 220 218 219 219 220 224 230 234 238 244 245 244 240 236 237 241 242 241 241 240 235 232 240 245 237 242 255 255 261 272 275 278 283 285 287 288 289 291 292 291 291 290 291 292 294
215 220 226 225 218 212 214 213 210 210 211 212 214 215 214 213 214 215 215 213 213 214 213 211 209 208 207 206 206 207 209 211 215 218 223 225 225 224 222 219 217 216 216 215 217 217 218 221 226 231 236 240 245 245 243 243 246 247 247 248 248 246 244 241 244 257 253 237 248 267 266 265 273 279 282 284 285 286 287 287 288 289 291 292 291 292 293 293
214 217 221 224 225 225 225 223 218 215 213 211 212 214 214 213 214 215 215 215 215 214 212 212 212 212 212 212 213 214 212 211 213 217 221 223 223 222 220 214 212 213 213 214 215 214 217 223 226 229 234 239 242 243 245 246 248 247 246 250 253 252 252 253 256 262 259 252 260 272 271 270 274 277 280 282 283 284 284 285 286 288 291 292 292 291 290 291
213 216 218 222 227 229 230 229 223 220 218 214 213 214 214 214 215 215 216 216 216 216 215 214 214 213 214 218 222 224 224 221 219 219 221 222 223 223 223 220 217 215 212 212 213 213 218 222 225 229 233 238 242 246 247 246 245 245 247 250 253 253 253 254 257 259 258 257 262 266 267 270 273 274 278 282 282 282 284 285 286 288 290 291 291 290 291 294
211 215 217 219 225 227 229 230 225 221 221 218 216 217 216 216 216 216 217 218 218 219 218 216 214 212 213 218 222 224 226 226 225 224 224 225 226 226 227 228 228 224 218 215 215 216 220 223 227 231 232 237 243 246 247 246 244 243 246 249 249 249 251 253 254 257 257 257 260 260 259 266 273 276 279 282 282 282 284 284 285 287 289 291 292 292 294 295
210 213 215 218 222 222 223 225 221 217 220 222 220 220 220 221 220 217 217 220 220 221 222 221 219 215 214 216 219 222 224 224 224 225 225 227 230 231 231 232 234 234 231 227 225 224 226 228 230 230 231 238 244 246 247 246 239 236 245 250 251 250 253 254 253 257 259 258 257 256 259 271 280 279 278 280 281 281 282 283 285 288 290 292 292 292 292 291
Height
3087 3088 3090 3092 3094 3096 3098 3099 3101 3104 3106 3107 3108 3109 3111 3114 3117 3120 3122 3124 3126 3128 3130 3132 3134 3136 3138 3139 3141 3142 3144 3145 3146 3148 3150 3152 3153 3155 3156 3158 3160 3162 3163 3165 3166 3168 3169 3171 3172 3174 3175 3177 3178 3179 3181 3182 3183 3184 3185 3186 3186 3186 3186 3187 3188 3188 3189 3189 3189 3190 3191 3191 3191 3192 3192 3192 3193 3193 3194 3194 3195 3195 3196 3197 3198 3198 3198 3199
3085 3087 3089 3091 3093 3095 3097 3098 3100 3103 3105 3106 3107 3109 3110 3113 3116 3119 3121 3123 3126 3127 3129 3131 3133 3135 3137 3138 3140 3142 3143 3144 3145 3147 3149 3151 3153 3154 3156 3158 3159 3161 3163 3164 3165 3167 3168 3169 3171 3173 3175 3176 3177 3179 3180 3181 3182 3183 3184 3185 3185 3185 3186 3186 3187 3188 3189 3189 3190 3190 3191 3191 3191 3192 3192 3192 3192 3193 3193 3194 3194 3195 3196 3196 3197 3198 3198 3198
3084 3085 3087 3089 3091 3094 3096 3097 3099 3102 3104 3105 3107 3108 3110 3113 3115 3118 3120 3123 3125 3127 3128 3130 3132 3134 3136 3138 3139 3141 3142 3143 3145 3147 3149 3150 3152 3153 3155 3157 3158 3160 3162 3163 3165 3166 3168 3169 3170 3172 3174 3175 3177 3178 3179 3181 3181 3182 3183 3184 3184 3185 3186 3186 3187 3188 3188 3189 3189 3190 3190 3191 3191 3191 3192 3192 3192 3192 3193 3193 3194 3195 3195 3196 3196 3197 3197 3198
3082 3084 3086 3088 3090 3092 3095 3096 3098 3101 3103 3105 3106 3107 3110 3112 3115 3117 3120 3122 3124 3125 3127 3129 3131 3133 3135 3136 3138 3140 3141 3143 3145 3146 3148 3149 3151 3153 3154 3156 3158 3159 3161 3162 3164 3166 3167 3169 3170 3171 3173 3174 3176 3177 3179 3180 3181 3181 3182 3183 3184 3185 3186 3186 3186 3187 3188 3189 3189 3189 3190 3190 3190 3191 3191 3191 3192 3192 3192 3193 3194 3194 3195 3195 3196 3196 3197 3197
3080 3083 3085 3087 3089 3091 3094 3095 3097 3099 3102 3104 3105 3107 3109 3111 3114 3117 3119 3121 3123 3125 3126 3128 3130 3132 3134 3135 3137 3139 3141 3143 3144 3145 3147 3148 3150 3152 3154 3155 3157 3158 3160 3162 3163 3165 3166 3168 3169 3170 3172 3173 3175 3176 3178 3179 3180 3180 3181 3182 3183 3185 3186 3186 3186 3186 3187 3188 3189 3188 3189 3190 3190 3190 3190 3190 3191 3191 3192 3193 3193 3194 3194 3195 3195 3196 3196 3196
3079 3081 3084 3086 3088 3090 3092 3094 3096 3098 3101 3103 3104 3106 3108 3111 3113 3116 3118 3120 3122 3124 3125 3127 3129 3131 3133 3134 3136 3138 3140 3142 3143 3144 3146 3147 3149 3151 3153 3154 3156 3158 3159 3161 3162 3164 3166 3167 3169 3170 3171 3173 3174 3175 3177 3178 3179 3180 3181 3182 3183 3184 3185 3186 3186 3186 3187 3188 3188 3188 3189 3189 3189 3190 3190 3190 3190 3191 3191 3192 3193 3193 3194 3194 3195 3195 3196 3196
3077 3080 3082 3084 3086 3089 3091 3093 3095 3097 3100 3102 3103 3105 3108 3110 3112 3115 3117 3119 3121 3123 3125 3126 3128 3130 3132 3134 3136 3137 3139 3141 3142 3143 3145 3146 3148 3150 3152 3154 3155 3157 3158 3160 3162 3164 3165 3166 3168 3169 3171 3172 3173 3174 3176 3177 3178 3179 3180 3181 3182 3184 3185 3185 3186 3186 3187 3187 3188 3188 3188 3189 3189 3189 3190 3190 3189 3190 3190 3191 3192 3192 3193 3194 3194 3195 3195 3195
3076 3078 3081 3083 3085 3087 3090 3092 3094 3096 3099 3101 3102 3104 3107 3109 3111 3114 3116 3118 3120 3122 3124 3126 3127 3129 3131 3133 3135 3136 3138 3140 3141 3142 3144 3146 3147 3149 3151 3153 3154 3156 3158 3159 3161 3163 3164 3166 3167 3168 3169 3171 3172 3173 3175 3176 3176 3177 3179 3180 3182 3183 3184 3184 3185 3185 3186 3186 3187 3187 3188 3188 3189 3189 3189 3189 3189 3189 3190 3190 3191 3192 3192 3193 3193 3194 3194 3195
3074 3077 3079 3081 3084 3086 3089 3091 3093 3095 3098 3100 3101 3104 3106 3108 3111 3113 3115 3118 3120 3122 3123 3125 3126 3128 3130 3132 3134 3135 3137 3139 3140 3142 3143 3145 3147 3149 3150 3152 3153 3155 3157 3158 3160 3162 3163 3165 3166 3167 3168 3170 3171 3173 3174 3175 3175 3176 3178 3180 3181 3182 3182 3183 3184 3185 3185 3186 3186 3186 3187 3188 3188 3188 3189 3188 3188 3189 3189 3189 3190 3191 3191 3192 3192 3193 3193 3193
3072 3075 3077 3080 3083 3085 3087 3090 3092 3094 3097 3099 3101 3103 3105 3107 3110 3112 3115 3117 3119 3121 3122 3124 3126 3127 3129 3131 3132 3134 3137 3138 3140 3141 3143 3145 3146 3148 3150 3151 3153 3154 3156 3157 3159 3161 3163 3164 3165 3167 3168 3169 3171 3172 3173 3174 3174 3176 3178 3179 3180 3180 3181 3182 3183 3184 3184 3185 3185 3185 3186 3187 3187 3187 3188 3188 3188 3188 3189 3189 3189 3190 3190 3191 3192 3192 3192 3192
3070 3073 3076 3079 3081 3084 3086 3088 3091 3093 3095 3098 3100 3102 3104 3107 3109 3111 3114 3116 3118 3120 3121 3123 3125 3126 3128 3129 3131 3134 3136 3138 3139 3140 3142 3144 3145 3147 3149 3150 3152 3153 3155 3157 3159 3160 3162 3164 3165 3166 3167 3168 3170 3171 3172 3173 3174 3176 3177 3178 3178 3179 3180 3181 3182 3183 3183 3184 3184 3185 3185 3186 3186 3187 3187 3187 3187 3187 3188 3188 3188 3189 3189 3190 3191 3191 3191 3191
3068 3071 3074 3077 3080 3082 3085 3087 3089 3092 3094 3097 3099 3101 3104 3106 3108 3111 3113 3115 3117 3118 3120 3122 3123 3125 3126 3128 3131 3133 3135 3136 3138 3139 3141 3143 3145 3146 3148 3149 3151 3153 3155 3156 3158 3160 3162 3163 3165 3166 3167 3168 3169 3170 3171 3172 3173 3175 3176 3176 3177 3178 3179 3180 3181 3182 3182 3183 3184 3184 3184 3185 3185 3185 3186 3186 3186 3187 3187 3188 3188 3188 3188 3189 3189 3190 3190 3190
3066 3069 3072 3075 3078 3080 3083 3085 3087 3090 3093 3096 3098 3100 3103 3105 3107 3110 3112 3114 3116 3117 3119 3121 3122 3124 3125 3127 3130 3132 3133 3135 3137 3139 3140 3142 3144 3146 3147 3149 3150 3152 3154 3155 3157 3159 3161 3162 3163 3165 3166 3167 3168 3169 3170 3171 3172 3173 3174 3175 3176 3177 3178 3179 3180 3180 3181 3182 3183 3183 3183 3183 3183 3184 3184 3185 3185 3186 3186 3187 3187 3187 3188 3188 3188 3188 3189 3189
3064 3067 3070 3073 3076 3079 3081 3083 3086 3089 3092 3094 3097 3099 3102 3104 3107 3109 3111 3112 3114 3116 3118 3120 3121 3123 3124 3127 3129 3131 3132 3134 3136 3138 3139 3141 3143 3145 3146 3148 3150 3151 3153 3155 3156 3158 3160 3161 3162 3163 3165 3166 3167 3168 3169 3170 3171 3172 3173 3174 3175 3176 3176 3178 3178 3179 3180 3181 3181 3182 3183 3182 3182 3183 3183 3183 3184 3184 3184 3185 3186 3186 3186 3187 3187 3187 3187 3187
3062 3065 3068 3070 3074 3077 3080 3082 3085 3087 3090 3093 3096 3099 3101 3103 3105 3108 3110 3111 3113 3115 3117 3119 3120 3122 3123 3126 3127 3129 3131 3133 3135 3137 3138 3140 3142 3144 3146 3147 3149 3150 3152 3154 3155 3157 3159 3160 3161 3163 3164 3165 3166 3167 3168 3169 3170 3171 3172 3173 3173 3174 3175 3176 3177 3178 3179 3180 3180 3181 3181 3181 3181 3181 3182 3182 3183 3183 3183 3183 3184 3184 3185 3185 3185 3186 3186 3186
3060 3063 3065 3068 3072 3075 3078 3081 3083 3086 3089 3092 3095 3097 3099 3102 3104 3106 3108 3110 3112 3114 3115 3117 3119 3120 3122 3124 3125 3127 3129 3131 3133 3135 3137 3140 3142 3143 3145 3147 3148 3150 3151 3153 3154 3156 3158 3159 3160 3162 3163 3164 3165 3166 3167 3168 3169 3170 3171 3171 3172 3173 3174 3175 3176 3176 3178 3178 3179 3179 3180 3180 3180 3180 3181 3181 3181 3181 3182 3182 3182 3183 3183 3184 3184 3184 3184 3184
3058 3061 3063 3066 3069 3072 3076 3079 3082 3084 3087 3090 3093 3096 3098 3100 3103 3105 3107 3108 3110 3112 3114 3115 3117 3119 3121 3121 3123 3125 3128 3130 3132 3134 3137 3139 3141 3143 3145 3146 3147 3149 3150 3152 3154 3155 3157 3158 3159 3160 3161 3163 3164 3165 3166 3167 3167 3168 3169 3170 3171 3172 3173 3174 3175 3175 3176 3177 3177 3178 3178 3178 3179 3179 3179 3180 3180 3180 3180 3181 3181 3181 3181 3182 3182 3182 3183 3182
3056 3059 3061 3064 3067 3070 3074 3077 3080 3083 3085 3088 3091 3094 3096 3098 3101 3103 3105 3106 3109 3110 3112 3113 3114 3116 3117 3118 3120 3124 3127 3129 3132 3134 3136 3138 3140 3142 3144 3145 3146 3148 3149 3151 3152 3154 3155 3156 3158 3159 3160 3161 3162 3163 3165 3165 3166 3167 3168 3169 3170 3171 3172 3173 3173 3174 3175 3175 3176 3176 3175 3177 3178 3178 3177 3178 3178 3177 3178 3179 3179 3179 3180 3180 3180 3180 3181 3180
3053 3057 3059 3062 3064 3068 3071 3075 3078 3081 3083 3086 3089 3092 3094 3096 3099 3101 3102 3104 3106 3108 3109 3109 3110 3112 3114 3116 3120 3123 3126 3128 3130 3132 3135 3137 3139 3141 3143 3144 3145 3147 3148 3149 3151 3153 3154 3155 3156 3157 3158 3159 3161 3162 3164 3164 3165 3166 3167 3168 3169 3170 3171 3172 3172 3173 3173 3174 3174 3174 3173 3174 3176 3176 3177 3177 3176 3175 3176 3177 3178 3178 3178 3178 3178 3178 3178 3178
3051 3054 3057 3059 3062 3066 3069 3073 3076 3078 3081 3083 3086 3089 3091 3093 3095 3096 3098 3101 3103 3105 3106 3106 3109 3112 3114 3116 3119 3122 3124 3126 3128 3131 3133 3135 3138 3139 3141 3143 3144 3145 3147 3149 3150 3152 3153 3154 3155 3156 3158 3159 3160 3161 3163 3164 3165 3165 3166 3167 3168 3169 3170 3171 3171 3172 3172 3172 3172 3172 3171 3171 3172 3174 3175 3176 3175 3174 3174 3175 3176 3176 3176 3176 3176 3176 3176 3176
3048 3051 3054 3057 3060 3064 3067 3070 3074 3076 3078 3080 3083 3086 3087 3089 3091 3092 3095 3098 3101 3103 3104 3105 3108 3111 3114 3116 3118 3120 3122 3124 3127 3130 3132 3134 3136 3138 3139 3141 3142 3144 3146 3148 3149 3151 3152 3153 3154 3156 3157 3159 3160 3160 3162 3163 3164 3165 3165 3166 3168 3168 3169 3170 3170 3170 3171 3171 3171 3170 3169 3168 3169 3171 3172 3173 3173 3172 3172 3173 3173 3174 3174 3174 3174 3174 3174 3174
3045 3048 3051 3055 3058 3061 3065 3068 3071 3073 3075 3078 3081 3084 3086 3089 3091 3093 3096 3098 3099 3101 3103 3104 3106 3109 3112 3115 3116 3118 3120 3122 3125 3128 3130 3132 3134 3136 3138 3140 3141 3143 3145 3146 3148 3150 3151 3152 3154 3155 3156 3157 3158 3160 3161 3162 3163 3164 3165 3166 3167 3167 3168 3169 3169 3169 3170 3169 3169 3168 3166 3165 3167 3168 3169 3170 3170 3170 3171 3170 3171 3171 3171 3171 3171 3171 3171 3171
3042 3045 3049 3052 3056 3059 3062 3065 3068 3070 3073 3076 3079 3082 3085 3088 3090 3093 3095 3097 3099 3100 3101 3103 3105 3108 3111 3113 3115 3117 3118 3121 3124 3126 3128 3130 3132 3135 3136 3138 3140 3142 3144 3145 3147 3148 3149 3151 3152 3153 3155 3156 3157 3159 3160 3161 3162 3163 3164 3165 3166 3166 3166 3167 3168 3168 3168 3168 3167 3166 3164 3162 3164 3165 3166 3167 3167 3168 3168 3168 3169 3169 3168 3169 3168 3168 3168 3168
3039 3043 3046 3049 3053 3057 3060 3063 3065 3068 3071 3075 3078 3081 3084 3087 3090 3091 3094 3096 3097 3098 3100 3102 3104 3107 3110 3112 3114 3116 3118 3120 3123 3125 3126 3128 3131 3133 3135 3137 3139 3140 3142 3144 3146 3147 3148 3150 3151 3152 3153 3155 3156 3157 3159 3160 3161 3162 3163 3164 3164 3164 3165 3166 3167 3167 3167 3167 3166 3164 3161 3159 3160 3161 3162 3164 3164 3165 3166 3166 3167 3167 3167 3166 3166 3166 3166 3166
3037 3040 3043 3047 3050 3054 3057 3060 3062 3065 3069 3073 3077 3079 3082 3086 3088 3091 3093 3095 3095 3096 3098 3100 3102 3105 3108 3110 3112 3114 3116 3118 3120 3123 3125 3127 3129 3131 3133 3136 3137 3138 3140 3143 3144 3145 3147 3148 3149 3151 3152 3153 3155 3156 3157 3159 3160 3161 3161 3162 3163 3163 3164 3165 3165 3166 3165 3165 3164 3164 3161 3156 3156 3158 3159 3160 3162 3162 3163 3164 3165 3166 3165 3164 3164 3164 3163 3163
3034 3037 3040 3044 3047 3051 3054 3056 3060 3064 3068 3072 3075 3077 3080 3084 3087 3090 3092 3094 3092 3092 3095 3096 3099 3103 3105 3108 3110 3112 3115 3116 3118 3120 3122 3125 3127 3129 3132 3133 3135 3137 3139 3142 3143 3143 3144 3146 3148 3149 3150 3152 3153 3154 3156 3157 3158 3159 3160 3160 3161 3162 3163 3163 3164 3165 3164 3163 3163 3164 3163 3156 3151 3154 3157 3158 3158 3159 3160 3161 3162 3163 3163 3162 3162 3161 3161 3161
3031 3035 3038 3041 3044 3047 3050 3054 3058 3061 3065 3070 3073 3075 3078 3082 3086 3088 3091 3094 3090 3087 3091 3093 3095 3099 3102 3105 3107 3109 3111 3111 3115 3118 3119 3122 3124 3127 3130 3130 3133 3135 3137 3140 3140 3140 3141 3144 3146 3147 3148 3149 3151 3153 3154 3156 3157 3158 3158 3159 3160 3161 3162 3162 3162 3163 3162 3162 3161 3161 3162 3157 3148 3148 3153 3155 3155 3155 3156 3158 3159 3160 3160 3160 3160 3159 3159 3159
3029 3033 3035 3038 3041 3044 3048 3052 3056 3059 3063 3068 3070 3073 3076 3080 3085 3086 3090 3092 3086 3082 3086 3089 3092 3096 3099 3103 3104 3106 3107 3109 3113 3115 3116 3120 3122 3125 3128 3129 3132 3134 3135 3136 3136 3137 3140 3142 3144 3145 3147 3148 3149 3152 3153 3154 3156 3156 3157 3158 3159 3160 3160 3161 3161 3161 3161 3161 3159 3159 3161 3157 3146 3144 3150 3151 3150 3151 3153 3154 3155 3156 3157 3157 3157 3157 3158 3158
3026 3030 3033 3036 3038 3041 3045 3049 3053 3057 3062 3065 3068 3071 3075 3079 3083 3085 3089 3088 3080 3079 3082 3085 3089 3092 3096 3099 3100 3102 3104 3107 3111 3112 3115 3118 3120 3123 3125 3127 3131 3132 3133 3134 3135 3137 3139 3140 3142 3143 3145 3146 3148 3150 3151 3153 3154 3154 3156 3157 3158 3159 3159 3160 3160 3160 3160 3158 3156 3157 3160 3155 3143 3140 3146 3147 3147 3149 3150 3151 3153 3153 3154 3154 3155 3155 3155 3156
3023 3027 3030 3033 3035 3038 3042 3046 3051 3055 3059 3063 3066 3069 3073 3077 3079 3083 3086 3081 3075 3077 3080 3081 3085 3088 3091 3094 3096 3098 3101 3104 3108 3111 3113 3115 3118 3121 3123 3125 3128 3130 3131 3133 3135 3136 3137 3139 3140 3141 3143 3144 3146 3148 3150 3152 3152 3153 3155 3156 3157 3158 3158 3159 3158 3159 3160 3155 3153 3154 3157 3156 3146 3139 3141 3144 3145 3147 3148 3149 3150 3151 3152 3152 3152 3153 3153 3153
3020 3024 3027 3031 3033 3036 3040 3045 3049 3054 3057 3060 3063 3067 3071 3074 3076 3078 3078 3074 3073 3075 3076 3077 3081 3084 3086 3089 3090 3093 3097 3101 3106 3108 3109 3111 3114 3117 3119 3121 3124 3128 3130 3131 3132 3134 3135 3137 3138 3139 3141 3142 3144 3146 3148 3149 3150 3152 3153 3155 3157 3157 3157 3157 3156 3158 3158 3153 3152 3153 3155 3156 3147 3138 3140 3142 3144 3145 3146 3147 3149 3149 3150 3150 3150 3150 3150 3151
3018 3021 3025 3028 3031 3034 3038 3043 3048 3052 3056 3058 3061 3064 3067 3071 3073 3072 3070 3070 3071 3071 3071 3074 3077 3079 3082 3086 3088 3090 3093 3098 3102 3104 3106 3109 3111 3112 3114 3116 3118 3123 3125 3127 3129 3132 3133 3134 3136 3137 3138 3140 3142 3144 3145 3147 3148 3150 3152 3153 3155 3156 3157 3156 3155 3156 3155 3151 3151 3152 3153 3150 3139 3135 3139 3141 3142 3144 3144 3145 3146 3147 3148 3148 3148 3149 3149 3150
3015 3018 3022 3026 3029 3032 3035 3040 3045 3049 3053 3055 3058 3061 3064 3066 3065 3064 3064 3065 3066 3066 3068 3072 3074 3076 3080 3083 3086 3088 3092 3095 3098 3101 3104 3107 3109 3110 3112 3114 3116 3118 3119 3122 3126 3128 3130 3132 3133 3134 3136 3137 3139 3141 3143 3145 3146 3148 3149 3151 3152 3155 3156 3156 3155 3155 3152 3150 3149 3151 3152 3144 3133 3133 3137 3137 3139 3141 3141 3143 3144 3145 3146 3146 3147 3148 3148 3148
3013 3016 3019 3023 3027 3030 3033 3038 3042 3046 3049 3052 3055 3057 3060 3060 3059 3059 3060 3061 3063 3064 3066 3068 3072 3075 3078 3080 3082 3085 3089 3093 3096 3099 3101 3104 3106 3106 3108 3110 3112 3115 3117 3120 3123 3124 3127 3128 3129 3131 3134 3135 3137 3139 3141 3143 3144 3145 3147 3148 3148 3150 3151 3151 3152 3151 3149 3148 3148 3150 3148 3138 3131 3133 3133 3134 3137 3138 3139 3141 3142 3143 3144 3145 3146 3146 3147 3147
3010 3013 3016 3020 3024 3028 3031 3034 3038 3042 3045 3048 3051 3053 3053 3053 3053 3053 3053 3057 3061 3062 3062 3066 3069 3072 3075 3078 3080 3083 3086 3089 3093 3096 3098 3099 3099 3100 3103 3105 3108 3112 3114 3117 3119 3121 3123 3125 3126 3129 3131 3133 3136 3138 3139 3141 3142 3144 3145 3146 3145 3146 3147 3148 3149 3148 3148 3149 3146 3145 3139 3131 3129 3131 3131 3133 3134 3136 3138 3139 3140 3142 3143 3144 3144 3144 3145 3146
3007 3010 3012 3016 3021 3025 3029 3031 3035 3038 3041 3044 3046 3046 3045 3045 3046 3046 3048 3053 3057 3057 3059 3064 3067 3068 3071 3075 3078 3080 3083 3086 3090 3093 3094 3096 3096 3098 3100 3102 3104 3108 3110 3113 3116 3118 3121 3123 3124 3126 3128 3131 3133 3135 3136 3138 3139 3141 3141 3141 3142 3144 3146 3147 3148 3147 3149 3148 3142 3138 3132 3127 3128 3128 3128 3131 3130 3131 3135 3136 3138 3140 3140 3142 3143 3143 3144 3144
3003 3006 3009 3012 3017 3022 3026 3029 3032 3034 3037 3039 3040 3039 3041 3041 3042 3044 3047 3051 3053 3055 3057 3060 3063 3065 3067 3070 3073 3075 3079 3083 3086 3088 3089 3092 3093 3093 3096 3099 3102 3105 3107 3111 3114 3115 3118 3121 3122 3124 3126 3128 3130 3132 3133 3135 3136 3137 3137 3138 3141 3144 3145 3146 3147 3147 3149 3147 3139 3133 3129 3127 3128 3127 3125 3127 3127 3128 3132 3134 3136 3137 3138 3140 3141 3142 3143 3142
3001 3004 3006 3008 3013 3018 3022 3026 3028 3031 3034 3035 3035 3036 3037 3038 3040 3045 3046 3048 3052 3053 3055 3057 3059 3062 3064 3066 3068 3071 3075 3078 3081 3083 3085 3087 3088 3087 3091 3096 3099 3102 3106 3110 3113 3114 3116 3118 3120 3122 3124 3126 3128 3129 3130 3131 3132 3133 3135 3137 3139 3141 3142 3143 3145 3144 3145 3146 3138 3130 3127 3125 3123 3123 3124 3126 3126 3128 3130 3132 3133 3134 3135 3136 3138 3139 3140 3140
2999 3001 3002 3005 3010 3014 3018 3022 3025 3028 3031 3030 3030 3030 3032 3034 3039 3044 3045 3047 3050 3051 3052 3054 3057 3061 3063 3064 3066 3069 3072 3073 3076 3078 3080 3083 3083 3083 3087 3092 3095 3099 3103 3107 3110 3112 3114 3116 3118 3119 3121 3123 3124 3124 3125 3125 3129 3132 3134 3136 3136 3137 3138 3138 3140 3139 3139 3142 3138 3130 3126 3119 3115 3118 3121 3123 3125 3126 3127 3128 3129 3130 3132 3133 3135 3136 3137 3137
2995 2997 2998 3002 3007 3010 3014 3018 3022 3025 3025 3024 3023 3024 3027 3031 3036 3041 3043 3045 3047 3048 3049 3052 3054 3058 3060 3063 3065 3067 3069 3071 3073 3075 3077 3079 3080 3081 3085 3088 3092 3096 3101 3105 3108 3110 3112 3112 3114 3116 3118 3120 3119 3119 3121 3123 3126 3129 3130 3131 3132 3133 3135 3135 3137 3136 3136 3138 3137 3134 3126 3112 3109 3117 3119 3120 3123 3123 3124 3125 3126 3128 3130 3132 3133 3134 3134 3134
2989 2992 2994 2999 3004 3006 3010 3013 3016 3019 3019 3018 3019 3021 3025 3028 3032 3038 3041 3043 3045 3046 3047 3050 3052 3055 3058 3060 3063 3065 3067 3069 3071 3073 3074 3076 3077 3078 3081 3085 3089 3093 3098 3102 3104 3106 3108 3109 3111 3113 3114 3115 3116 3118 3121 3122 3124 3124 3125 3126 3126 3128 3131 3133 3134 3133 3133 3134 3134 3135 3127 3107 3104 3114 3116 3117 3122 3122 3122 3124 3125 3128 3129 3130 3131 3131 3131 3131
2986 2988 2990 2995 2999 3001 3005 3007 3010 3013 3013 3013 3015 3018 3022 3026 3029 3035 3038 3040 3041 3043 3045 3047 3049 3052 3055 3057 3060 3062 3064 3066 3068 3070 3071 3072 3073 3076 3079 3083 3087 3091 3095 3097 3099 3102 3105 3107 3108 3109 3110 3112 3115 3117 3119 3120 3121 3122 3122 3122 3123 3125 3126 3127 3130 3129 3131 3132 3130 3133 3128 3106 3100 3111 3114 3115 3119 3119 3121 3123 3124 3127 3127 3128 3129 3128 3128 3128
2984 2986 2988 2991 2994 2996 3000 3003 3006 3009 3007 3008 3012 3016 3020 3023 3026 3031 3034 3036 3038 3040 3042 3044 3046 3049 3051 3053 3056 3058 3060 3063 3065 3066 3068 3070 3071 3075 3079 3082 3085 3088 3091 3094 3096 3099 3102 3103 3104 3106 3108 3110 3112 3114 3115 3116 3117 3117 3116 3117 3119 3121 3122 3125 3128 3127 3128 3128 3125 3130 3126 3104 3097 3107 3111 3112 3115 3117 3119 3121 3122 3124 3125 3125 3125 3125 3125 3125
2982 2984 2986 2988 2991 2992 2993 2995 2999 3001 3001 3004 3010 3014 3017 3021 3024 3028 3030 3032 3034 3037 3039 3041 3043 3045 3048 3050 3053 3055 3057 3060 3062 3064 3066 3067 3069 3073 3077 3079 3082 3084 3086 3088 3091 3093 3096 3098 3100 3104 3107 3109 3111 3111 3110 3110 3110 3110 3111 3114 3115 3118 3121 3124 3125 3126 3125 3120 3120 3125 3116 3098 3096 3105 3107 3109 3112 3114 3117 3119 3119 3121 3121 3121 3121 3121 3121 3122
2980 2981 2983 2985 2988 2988 2987 2989 2993 2996 2997 3001 3006 3010 3014 3017 3020 3024 3027 3029 3031 3034 3036 3039 3041 3043 3045 3048 3050 3052 3055 3057 3059 3061 3064 3065 3067 3070 3073 3076 3078 3080 3083 3086 3088 3089 3091 3091 3093 3096 3098 3100 3100 3099 3098 3100 3104 3107 3108 3110 3111 3114 3117 3118 3120 3122 3117 3111 3114 3115 3104 3094 3097 3104 3105 3106 3110 3111 3113 3115 3115 3116 3117 3117 3117 3117 3118 3118
2977 2978 2980 2982 2984 2984 2984 2985 2989 2992 2995 2999 3003 3007 3010 3013 3016 3020 3023 3026 3028 3031 3034 3036 3039 3041 3043 3044 3047 3048 3051 3054 3056 3058 3060 3062 3064 3067 3070 3073 3076 3078 3081 3083 3085 3087 3087 3087 3087 3087 3087 3088 3089 3090 3093 3097 3101 3103 3103 3105 3108 3110 3112 3113 3115 3113 3107 3106 3108 3104 3100 3097 3095 3098 3103 3105 3107 3110 3110 3110 3111 3112 3112 3112 3113 3113 3114 3113
2974 2975 2976 2979 2981 2982 2983 2984 2985 2988 2991 2995 2998 3001 3004 3008 3012 3016 3020 3022 3025 3028 3031 3034 3036 3038 3038 3040 3042 3044 3047 3051 3052 3054 3057 3059 3061 3064 3067 3070 3073 3075 3078 3080 3081 3083 3083 3083 3083 3084 3084 3085 3088 3090 3094 3097 3098 3099 3100 3102 3104 3106 3107 3108 3106 3102 3103 3106 3101 3096 3101 3100 3089 3089 3100 3104 3104 3106 3106 3106 3108 3108 3107 3108 3108 3109 3109 3108
2971 2972 2973 2976 2978 2979 2980 2982 2983 2985 2988 2990 2994 2997 3000 3004 3007 3011 3015 3018 3021 3024 3027 3029 3032 3034 3035 3037 3039 3041 3044 3047 3049 3051 3054 3056 3059 3061 3064 3067 3069 3071 3074 3076 3077 3079 3079 3079 3080 3082 3082 3084 3087 3089 3091 3093 3094 3096 3097 3099 3100 3102 3103 3101 3098 3096 3099 3099 3095 3094 3099 3097 3086 3086 3096 3100 3100 3101 3102 3102 3103 3102 3103 3103 3103 3104 3103 3103
2968 2969 2971 2973 2974 2976 2978 2980 2982 2984 2985 2987 2990 2992 2995 2999 3002 3006 3010 3014 3016 3019 3022 3024 3027 3031 3033 3035 3037 3038 3040 3042 3044 3047 3050 3053 3055 3057 3060 3062 3064 3067 3070 3071 3073 3075 3076 3077 3078 3080 3080 3082 3084 3086 3087 3088 3090 3091 3092 3095 3097 3097 3096 3094 3092 3093 3094 3094 3093 3093 3094 3089 3084 3085 3092 3095 3096 3097 3097 3097 3097 3098 3099 3098 3098 3098 3098 3098
2964 2966 2969 2970 2971 2974 2976 2977 2980 2981 2983 2984 2985 2987 2991 2994 2997 3001 3005 3008 3011 3014 3017 3019 3023 3027 3030 3032 3034 3035 3037 3039 3042 3045 3047 3050 3052 3054 3056 3058 3060 3063 3066 3068 3070 3072 3073 3074 3076 3077 3078 3079 3081 3082 3082 3083 3085 3086 3088 3091 3091 3090 3089 3088 3087 3089 3092 3091 3090 3092 3090 3082 3079 3083 3089 3091 3091 3092 3093 3092 3093 3094 3094 3094 3093 3093 3092 3092
2961 2963 2965 2967 2968 2971 2973 2974 2977 2978 2979 2980 2981 2984 2987 2989 2992 2997 3000 3003 3007 3010 3013 3017 3021 3024 3027 3029 3031 3032 3035 3038 3041 3043 3045 3047 3049 3051 3053 3055 3057 3060 3062 3065 3067 3068 3070 3072 3073 3075 3074 3074 3076 3079 3078 3079 3081 3083 3083 3083 3082 3082 3082 3081 3082 3085 3087 3086 3087 3088 3084 3075 3074 3082 3087 3086 3086 3088 3088 3087 3088 3089 3090 3090 3088 3087 3087 3086
2957 2959 2962 2964 2965 2967 2969 2971 2973 2974 2975 2977 2979 2982 2984 2986 2991 2995 2997 2999 3003 3007 3011 3014 3018 3021 3023 3025 3027 3030 3032 3035 3038 3040 3042 3044 3046 3048 3050 3052 3054 3056 3059 3061 3063 3064 3067 3068 3069 3071 3070 3069 3073 3075 3074 3076 3077 3076 3074 3073 3075 3076 3076 3076 3078 3080 3081 3081 3081 3080 3075 3071 3075 3081 3080 3079 3081 3083 3083 3083 3084 3084 3084 3084 3083 3082 3081 3081